Powrót do katalogu

ARIANE 5 DEB

SYLDA

AktywnyGTO
NORAD 27833·DEBRIS·🇫🇷 France

Wystrzelony Jun 11, 2003 z Guiana Space Centre

Loading…

TLE

Starzejące sięSource: Space-Track

Epoka: Sep 14, 2026, 10:22 UTC

1 27833U 03028D   26257.43197104 -.00000179  00000-0 -13467-2 0  9999
2 27833   6.8842  76.2969 7149859  27.2566 356.8427  2.26670659192137

Śledź ARIANE 5 DEB w czasie rzeczywistym z AllMySat

Download on the App Store